map of MOC home
Great Circle Mapper logo
MOC - Airport
Location
City:  Montes Claros, Minas Gerais, Brazil
Name:Mário Ribeiro Airport
ICAO:SBMK
IATA:MOC

Details
Type:Airport (Aerodrome, Airfield)
Use:Public/Civil
Latitude:16°42'25"S (-16.706924)
Longitude:43°49'08"W (-43.818899)
Datum:WGS 1984
Elevation:2191 ft (668 m)
Variation:22.80°W (WMM2015 magnetic declination)
-0.08° annual change
Runways:1
Longest:6890 × 148 ft (2100 × 45 m), paved

Time
Time Zone:UTC-3 (DST-2)
Local Time:

Weather
METAR:SBMK 271300Z 08010KT 9999 SCT030 25/12 Q1023

Related Locations
Nearby:
Farthest:YAP: 11919 mi / 19182 km
Yap Island [Yap Intl], YAP, FM

Find:

   beyond  
but within

Other Information
Maps:
NOTAMs:
Links:
Sources:

  
flag of Brazil
flag of Minas Gerais
  

Sectional Chart

Flight Planning
at skyvector.com

Satellite Image

Google Maps Satellite view

 

Copyright © 2004-2016 Karl L. Swartz. All rights reserved.
The Great Circle Mapper name and logo are trademarks of the Great Circle Mapper.
All other trademarks mentioned herein belong to their respective owners.
Please see credits for attibutions and further copyright information.

  Follow gcmap on Facebook Follow gcmap on Twitter Follow gcmap on Google+ GCmap on LinkedIn

hCard Microformat

Geo Microformat